Overview Statistics Trail Chart Weather Telemetry Raw packets
 

This is the latest recevied weather packets stored in our database for station/object WX0ABE-13. If no packets are shown the sender has not sent any weather packets the latest 10 day(s).

<< 13 14 15 16 17 18 19 >>
Time Temp. Humidity Pressure Rain* Wind** Luminosity Snow
1788273434 17.78° C 86% 1018.6 hPa 0 mm - 39 W/m² -
1788273130 17.22° C 86% 1018.5 hPa 0 mm - 48 W/m² -
1788272827 17.22° C 87% 1018.5 hPa 0 mm - 44 W/m² -
1788272526 17.22° C 87% 1018.7 hPa 0 mm - 45 W/m² -
1788272221 17.22° C 88% 1018.3 hPa 0 mm - 39 W/m² -
1788271921 17.22° C 88% 1018.5 hPa 0 mm - 25 W/m² -
1788271620 17.22° C 88% 1017.8 hPa 0 mm - 20 W/m² -
1788271319 17.22° C 88% 1017.5 hPa 0 mm - 22 W/m² -
1788271014 16.67° C 88% 1018.2 hPa 0 mm - 15 W/m² -
1788270708 17.22° C 88% 1018.4 hPa 0 mm - 17 W/m² -
1788270405 16.67° C 88% 1017.8 hPa 0 mm - 23 W/m² -
1788270105 17.22° C 88% 1018.3 hPa 0 mm - 24 W/m² -
1788269824 16.67° C 87% 1018 hPa 0 mm - 19 W/m² -
1788269503 16.67° C 88% 1018 hPa 0 mm - 19 W/m² -
1788269198 16.67° C 88% 1017.8 hPa 0 mm - 21 W/m² -
1788268897 16.67° C 88% 1018.1 hPa 0 mm - 18 W/m² -
1788268598 16.67° C 88% 1018 hPa 0 mm - 16 W/m² -
1788268298 16.67° C 88% 1017.6 hPa 0 mm - 17 W/m² -
1788267993 16.67° C 88% 1017.5 hPa 0 mm - 13 W/m² -
1788267692 16.67° C 87% 1017.4 hPa 0 mm - 10 W/m² -
1788267390 16.67° C 87% 1017.3 hPa 0 mm - 11 W/m² -
1788267085 16.67° C 87% 1017.2 hPa 0 mm - 10 W/m² -
1788266786 16.67° C 87% 1017.1 hPa 0 mm - 9 W/m² -
1788266480 16.67° C 87% 1017.2 hPa 0 mm - 9 W/m² -
1788266180 16.67° C 87% 1017.2 hPa 0 mm - 6 W/m² -

* Rain latest hour (hover to see other rain measurements)
** Current wind speed in m/s (hover to see current wind gust speed)